Dewpoint
1 -1 -2 -3 -6 -2 -1 -4 -4 -3 -3 -4 -3 9 9 10 12 7 13 13 13 15 14 15 15 16 15 13 13 12 12 12 11 11 13 14 10 4 -2 -2 11 13 12 13 12 11 10 7 5
0 -1 -0 1 -1 -5 -2 -3 -2 -4 -5 -5 -5 2 7 8 12 13 13 14 13 13 14 15 15 16 15 14 13 12 12 12 12 12 12 14 12 7 -3 -3 11 12 12 13 12 12 10 8 3
1 1 4 -0 2 0 1 -1 -3 -5 -4 -4 -2 6 8 8 9 11 13 13 13 13 13 15 15 15 15 14 13 13 12 12 12 12 14 14 14 10 -0 -2 9 11 12 13 12 12 9 9 5
5 3 3 3 -0 -1 -0 -1 -3 -5 -5 -4 0 7 7 8 8 9 12 13 13 13 14 14 15 15 15 14 13 13 13 12 12 12 13 13 14 13 6 -2 11 11 10 10 12 11 9 9 6
3 4 2 0 1 -1 -2 -2 -2 -3 -4 -4 -3 6 7 7 7 7 10 12 13 12 14 14 15 15 15 15 14 13 13 13 12 12 13 13 13 13 12 2 1 10 11 10 10 10 9 9 7
3 2 3 2 1 -0 -2 -2 -2 -2 -4 -4 -3 6 7 7 7 7 8 11 12 12 12 13 14 15 15 15 14 13 13 13 13 13 13 13 13 13 13 10 -1 5 10 10 11 8 10 9 7
5 1 3 1 1 -1 -2 -3 -2 -2 -3 -2 -3 6 7 6 7 7 6 8 10 12 13 12 13 13 14 14 14 14 13 13 13 13 13 14 13 13 14 13 3 1 7 8 9 10 10 9 8
2 1 1 -0 -0 -1 -3 -3 -2 -2 -1 -2 -3 1 7 7 7 5 5 5 5 7 10 11 14 14 14 13 14 14 13 13 13 13 13 13 13 13 13 13 10 5 5 9 8 11 11 9 8
2 1 1 1 -1 -1 -2 -2 -2 -2 -2 -3 -2 -2 -3 -0 -1 -2 -1 3 4 3 3 3 6 11 15 15 15 14 14 14 13 13 12 12 12 12 12 12 11 5 10 5 8 10 12 9 8
-0 -1 1 -2 -1 -1 -1 -2 -2 -3 -3 -4 -4 -3 -1 -2 -2 -2 -2 -2 1 3 3 2 2 1 3 8 12 14 14 14 14 13 12 12 11 11 12 11 11 7 9 11 7 10 12 11 9
0 2 -0 0 -1 -2 -2 -3 -4 -3 -2 -4 -4 -3 -4 -4 -5 -5 -5 -3 -2 -3 -2 2 2 2 2 0 1 7 10 11 14 14 14 13 13 13 12 13 12 11 9 11 8 11 11 12 9
-1 -3 -2 -2 -3 -3 -4 -4 -5 -5 -4 -5 -5 -6 -6 -5 -5 -6 -6 -6 -6 -5 -5 -5 -5 -2 1 2 1 -1 -0 6 10 10 13 14 14 14 14 13 13 12 11 9 9 8 10 11 11
-3 -3 -4 -4 -4 -5 -5 -4 -5 -6 -8 -8 -8 -8 -8 -7 -8 -9 -9 -9 -9 -9 -8 -8 -7 -7 -6 -5 -3 -1 -0 -2 0 6 6 10 13 14 14 14 14 13 13 11 9 9 9 11 11
-3 -4 -5 -6 -5 -6 -6 -6 -6 -8 -7 -7 -6 -8 -9 -10 -10 -9 -8 -9 -10 -10 -10 -9 -8 -8 -10 -10 -9 -8 -7 -3 -2 -3 -0 6 6 10 13 14 15 14 13 13 13 10 10 10 11
-5 -5 -5 -5 -6 -5 -8 -8 -5 -8 -8 -8 -9 -7 -8 -8 -7 -8 -9 -8 -8 -7 -6 -6 -6 -6 -7 -7 -7 -8 -11 -10 -9 -5 -4 -4 0 5 7 12 14 14 14 13 14 13 13 11 11
-5 -5 -4 -5 -6 -7 -9 -8 -10 -9 -9 -8 -7 -7 -6 -6 -6 -5 -3 -3 -3 -4 -5 -6 -6 -6 -6 -5 -4 -3 -5 -8 -10 -13 -11 -7 -5 -4 2 5 8 12 14 14 14 14 13 13 12
-3 -3 -3 -6 -7 -7 -9 -7 -9 -8 -7 -6 -6 -4 -1 -1 -1 -1 -1 -1 -2 -2 -2 -2 -3 -3 -4 -4 -4 -4 -2 -2 -3 -5 -9 -14 -11 -8 -5 -2 3 6 9 13 14 13 13 13 13
-2 -2 -4 -6 -4 -2 -2 -4 -5 -5 -4 -4 -4 -0 -0 -0 -0 -1 -1 -2 -2 -3 -3 -3 -3 -2 -1 -1 -2 -3 -2 -2 -1 -2 -3 -3 -6 -11 -9 -7 -4 -1 4 6 8 12 14 12 12
-4 -3 -2 -3 -3 -1 -2 -1 -2 -3 -3 -3 1 1 1 1 1 1 1 1 1 1 1 1 1 -0 -1 -1 -1 -0 -0 -0 -1 -1 -1 -1 -2 -3 -7 -9 -6 -5 -3 1 4 3 7 11 13
-1 1 0 -1 -1 -1 -1 -1 -3 -4 -2 1 1 2 2 2 2 2 2 2 2 2 3 3 4 4 4 3 3 2 1 -0 -0 0 -0 -1 -0 -1 -2 -5 -6 -6 -6 -5 -3 -1 1 3 9
0 1 0 1 -1 -2 -1 -3 -4 -6 0 1 1 2 2 2 2 3 2 3 2 3 3 3 3 4 5 4 4 3 2 3 2 1 2 2 2 1 0 -2 -5 -5 -3 -0 -1 -2 -0 -0 0
0 -1 0 1 -1 -1 -2 -2 -4 -5 0 1 1 2 2 2 2 2 2 2 2 2 2 2 2 3 4 5 5 5 3 3 3 3 3 3 3 2 1 0 -1 -2 -3 -4 -0 2 0 1 3
-1 -1 0 0 0 -2 -2 -2 -2 -4 1 1 1 2 2 3 2 2 2 -0 -1 0 2 2 2 2 3 3 5 5 4 4 4 4 3 2 2 1 1 0 -0 -1 -1 -1 2 4 4 4 7
0 1 -0 1 0 -3 -1 -1 -1 -1 -0 1 1 2 2 3 2 1 -1 -2 -3 -3 -1 2 2 2 3 3 4 4 4 4 5 4 4 4 3 2 2 1 0 -1 -2 -0 -1 0 5 6 5
-2 -3 -3 -2 2 0 -3 -2 -0 -3 2 1 1 1 -0 0 2 0 -1 -1 -4 -7 -6 -3 -1 2 3 3 3 5 4 3 3 1 0 -1 -0 3 3 2 1 0 -0 -2 -2 -0 0 4 6
-0 -3 -2 -2 2 1 -3 -1 -1 -3 1 0 1 0 0 0 0 -0 -2 -4 -7 -10 -15 -14 -7 -4 1 2 2 3 4 4 3 1 -0 0 -0 1 3 3 2 1 0 0 1 1 1 1 3
-2 -0 -2 -3 -0 2 -2 -2 -1 1 2 1 1 -1 -0 0 -0 -1 -3 -5 -6 -10 -18 -20 -19 -15 -12 -8 -2 1 2 3 4 3 1 1 1 1 1 2 2 1 1 1 2 2 2 2 2
-0 -1 0 1 3 0 -1 0 1 2 2 0 -1 -1 0 -1 0 -0 -1 -2 -4 -8 -16 -21 -21 -18 -16 -16 -14 -3 -0 0 2 4 2 2 2 -1 -1 0 2 2 2 2 3 4 3 3 2
2 1 2 1 1 -0 2 1 -1 -0 1 0 -1 -1 1 -1 -0 -0 -1 -2 -4 -8 -19 -22 -19 -19 -19 -16 -2 0 -0 -1 1 4 3 2 2 1 -1 0 2 2 2 3 4 4 4 4 4
-1 -0 1 -2 -3 1 2 2 -2 0 -0 -0 0 1 -0 -2 -0 1 0 -2 -5 -10 -21 -21 -18 -19 -18 -14 0 -0 -0 -0 2 4 3 2 1 1 1 1 2 2 2 2 4 4 4 4 4
Wind_Speed
17 16 15 5 4 5 1 2 3 3 3 3 6 13 9 6 3 3 6 3 4 5 5 7 9 7 7 8 7 7 6 4 4 3 3 3 5 5 6 8 8 8 7 8 9 7 8 8 6
16 16 6 3 5 3 3 5 3 1 3 3 6 6 7 3 6 5 2 2 3 4 4 6 10 7 7 8 9 7 7 6 4 3 3 4 3 4 5 8 7 6 7 8 9 5 6 6 6
16 10 3 4 3 3 3 1 2 2 7 7 4 10 4 3 5 2 2 5 4 3 4 7 9 9 9 8 10 8 8 7 5 3 4 6 3 2 3 6 7 7 7 7 7 6 4 5 5
8 4 5 4 3 3 5 2 3 3 5 9 5 6 5 4 1 3 3 2 7 4 6 7 9 10 10 10 11 10 9 8 7 6 6 5 6 2 3 6 7 7 7 8 7 6 4 5 5
7 4 4 3 2 3 2 2 4 3 3 7 6 3 4 4 3 2 2 2 5 2 5 8 10 9 8 10 11 11 11 10 10 8 7 6 6 5 4 6 8 8 9 8 8 7 5 6 6
4 3 4 3 3 3 1 7 2 6 5 4 6 4 2 6 2 3 2 0 1 2 4 6 7 7 8 9 11 11 11 11 10 10 9 8 8 9 8 7 9 10 10 9 9 7 6 7 7
5 3 5 4 5 1 2 4 4 2 4 6 4 2 5 7 3 3 5 3 3 3 3 7 9 11 9 8 10 11 12 12 12 12 12 11 11 11 11 10 10 12 12 11 11 9 8 9 9
3 4 3 4 4 3 3 2 2 4 1 3 2 3 2 7 4 5 5 5 3 4 5 5 7 11 11 13 11 12 13 14 15 15 15 15 14 14 14 14 12 13 14 14 13 12 10 10 11
2 4 2 1 3 3 2 1 3 2 4 3 2 2 1 1 5 8 8 9 8 7 7 8 7 9 11 12 13 14 14 15 16 18 18 19 19 18 17 17 15 15 15 15 15 15 13 12 12
5 3 3 0 1 2 3 3 4 4 5 3 4 3 5 3 6 7 8 9 10 10 10 11 12 12 11 12 14 15 17 18 19 18 19 20 21 21 20 18 18 18 18 17 17 17 17 16 15
3 3 3 2 5 3 2 3 5 3 4 9 6 7 7 8 9 10 10 11 12 13 15 16 17 18 17 16 15 15 16 18 19 19 21 22 21 22 22 22 21 20 21 22 20 20 21 19 17
4 4 2 3 2 1 2 5 7 10 8 8 13 18 18 18 19 19 21 21 21 21 22 22 22 24 25 25 23 21 19 19 20 21 20 21 25 25 25 25 24 23 24 24 24 24 24 22 20
3 2 2 1 2 4 5 6 7 19 20 18 16 15 16 14 16 16 17 18 18 21 22 23 25 29 30 31 31 29 26 25 22 21 19 20 23 24 26 27 27 27 25 26 27 26 26 25 23
2 4 7 5 2 3 3 3 2 4 4 1 3 10 12 15 15 17 17 19 18 19 22 23 23 23 25 28 30 33 35 34 31 28 26 23 23 24 25 27 30 29 29 27 28 29 29 28 26
1 4 5 2 3 3 4 2 6 7 4 3 9 21 18 14 14 17 20 20 19 20 21 21 22 23 26 29 30 32 33 36 38 37 34 31 29 27 27 27 28 33 31 32 31 31 31 31 30
3 4 3 2 3 0 3 6 4 1 3 15 22 18 18 15 10 9 9 11 13 15 17 17 17 18 21 25 28 30 29 32 36 38 39 40 37 34 32 31 30 29 32 34 35 36 36 34 33
6 0 0 2 8 4 0 6 6 14 20 24 18 9 10 7 5 10 15 18 20 22 23 23 23 25 28 31 32 31 32 34 33 34 37 40 41 42 40 37 36 32 33 32 37 39 38 37 36
2 2 3 4 5 4 7 11 10 27 24 22 11 5 11 14 18 22 24 27 29 32 33 36 36 36 35 36 37 39 40 39 37 37 37 36 38 41 42 44 43 39 37 36 35 37 40 39 38
1 1 3 5 1 6 4 7 16 24 15 3 5 9 14 17 20 24 28 26 25 23 24 26 30 34 38 42 45 45 45 44 44 42 40 39 40 41 43 45 44 46 45 43 40 37 37 38 38
3 2 5 6 3 5 6 14 11 6 9 12 6 10 13 17 22 27 27 23 21 21 21 21 23 24 25 30 35 40 44 48 48 44 44 41 39 40 42 45 47 47 47 47 47 44 41 40 38
2 2 2 4 8 1 7 7 3 4 7 5 8 9 11 15 22 24 26 25 25 24 23 24 25 24 23 21 24 27 31 35 38 38 39 37 35 35 36 39 42 46 48 45 46 47 46 45 43
2 2 1 3 5 3 5 4 5 4 5 1 7 11 13 15 16 20 24 26 27 26 27 27 28 28 24 22 24 24 26 28 29 31 33 34 32 32 33 35 36 38 41 46 46 45 47 44 45
5 2 2 2 6 5 1 2 6 3 6 5 7 9 10 11 13 18 21 23 24 26 27 29 28 24 23 20 23 26 27 26 26 28 30 31 31 30 31 33 36 39 41 44 42 42 44 45 44
3 4 4 3 1 2 2 4 5 5 6 3 7 9 10 11 12 16 20 25 27 28 30 31 35 29 22 19 20 22 26 27 30 31 33 32 31 31 32 30 31 36 41 43 44 46 41 44 46
6 5 3 5 2 5 1 2 10 5 6 7 9 10 11 13 14 18 22 26 29 30 30 30 31 30 28 25 20 20 23 28 31 30 32 33 33 34 32 30 31 32 34 38 42 45 45 45 44
2 5 4 5 1 5 4 5 6 7 11 10 11 12 17 17 16 18 23 25 27 29 30 31 30 30 30 29 27 24 24 26 30 29 28 31 32 31 29 30 30 31 32 34 37 40 42 44 43
4 2 3 2 2 3 3 7 7 3 6 13 14 12 15 17 17 19 22 24 27 29 30 30 30 30 28 28 28 28 26 29 31 30 27 25 27 29 29 29 30 30 31 31 36 38 40 40 43
4 5 1 1 3 5 5 5 5 6 10 10 9 14 19 22 19 20 21 23 25 27 28 29 29 31 32 32 31 33 36 34 27 24 25 22 22 24 26 27 27 28 28 30 35 38 37 38 39
4 1 3 1 2 4 3 6 6 8 10 9 13 18 20 26 21 21 21 23 25 27 29 30 27 30 32 32 35 35 32 26 19 16 20 19 18 19 23 24 25 27 31 30 32 36 36 36 36
5 7 5 4 4 3 2 7 4 7 8 11 16 20 26 25 19 19 20 23 25 27 29 30 27 28 30 31 34 30 26 19 9 10 14 16 20 20 20 21 22 23 27 30 30 33 32 35 35
Wind_Direction
136 139 141 125 63 63 353 10 325 10 45 24 39 91 108 73 53 149 109 75 179 187 219 226 208 218 213 201 196 187 175 154 136 124 121 93 92 92 122 135 129 121 127 145 140 117 114 128 111
138 139 117 85 88 81 286 310 65 343 344 6 98 99 49 78 62 109 116 97 109 184 207 228 226 223 225 209 202 196 189 184 180 170 169 151 99 105 135 154 146 146 151 155 146 136 112 129 118
141 129 78 87 94 131 155 258 255 5 43 45 85 62 60 38 45 75 85 115 140 177 215 224 200 216 222 213 208 205 199 201 203 205 185 169 198 118 157 173 162 156 163 165 163 149 127 137 135
132 88 68 83 120 13 147 224 243 350 54 49 73 63 74 36 24 81 60 104 141 197 221 230 226 215 214 212 209 208 213 213 214 211 204 195 207 195 203 200 195 187 188 183 180 166 154 159 158
89 71 63 88 118 106 26 357 51 40 68 37 45 111 88 78 63 57 49 78 165 206 246 244 235 220 226 225 217 214 219 219 217 217 215 228 232 238 237 222 218 204 203 201 199 186 163 179 177
77 76 70 165 146 123 38 5 70 29 23 25 60 91 153 154 205 345 326 260 86 197 216 246 257 248 234 241 232 226 225 224 222 219 215 221 241 244 249 244 229 222 215 213 209 202 187 188 190
96 81 167 164 164 65 289 360 60 54 39 31 17 85 166 185 219 307 298 292 255 262 244 230 229 246 255 253 254 249 244 238 234 227 224 226 234 245 250 250 240 231 227 222 215 210 208 199 196
80 90 104 22 183 192 314 67 82 65 25 20 41 163 204 213 258 304 269 280 299 301 290 273 254 243 243 249 245 251 253 255 253 244 239 239 242 245 246 249 246 235 233 229 226 219 219 213 206
69 64 96 57 166 184 12 65 30 335 290 294 95 86 10 313 288 302 303 289 280 279 288 293 284 268 255 240 240 248 249 249 251 253 251 249 248 249 250 246 246 238 235 235 231 227 224 221 217
66 93 153 35 75 88 45 52 348 334 327 289 238 169 176 260 280 285 299 293 283 281 278 277 281 279 276 272 263 249 252 250 247 248 255 255 253 252 252 248 244 243 235 239 234 232 229 227 223
73 126 150 81 99 69 359 310 324 299 280 250 253 249 279 280 288 289 285 285 282 277 272 273 277 275 272 269 270 269 261 257 256 252 253 254 256 255 251 247 244 241 237 235 236 231 229 229 229
105 48 87 110 83 71 295 302 301 251 246 257 282 289 288 291 291 289 289 285 280 277 277 276 275 273 274 272 270 264 260 258 261 258 250 255 254 253 252 249 245 243 241 240 238 237 237 233 233
58 18 25 345 280 284 264 251 262 274 280 279 282 285 289 297 297 295 296 297 297 290 287 281 278 273 271 271 269 266 260 257 254 255 257 257 254 256 254 250 247 245 245 243 241 241 239 239 236
36 322 294 290 258 266 282 274 233 285 316 289 316 319 314 313 315 312 316 312 303 302 299 295 289 287 283 276 272 269 266 261 256 251 251 251 257 258 257 250 248 244 242 248 247 243 243 242 240
31 6 331 247 233 228 321 253 228 306 229 39 333 317 308 309 311 306 302 295 292 283 280 283 286 287 284 286 284 280 275 268 261 256 251 249 249 254 260 260 254 246 246 245 248 248 246 244 242
40 50 21 330 152 273 43 270 268 105 270 309 319 321 314 309 314 306 304 306 297 299 289 280 275 270 271 283 290 286 280 274 269 263 258 253 249 247 250 255 258 258 249 249 245 247 247 245 244
12 238 277 305 39 349 224 271 271 291 291 298 306 356 42 21 329 320 312 305 293 290 287 280 275 270 267 268 268 267 273 274 269 268 263 257 254 250 248 248 251 254 257 255 250 249 250 250 249
288 330 313 262 354 356 274 266 286 288 289 285 304 15 5 354 343 330 314 299 289 281 278 278 275 272 268 267 265 265 266 265 265 264 264 266 262 256 252 250 247 248 252 254 253 256 254 248 250
157 283 284 270 336 332 251 280 279 289 275 262 80 17 4 355 346 340 332 318 313 306 298 291 290 284 281 275 269 265 265 266 268 268 269 270 267 260 255 252 252 249 248 250 252 253 255 255 254
44 322 299 292 333 343 316 296 284 306 92 119 69 19 359 349 351 351 350 346 340 333 323 314 311 309 304 292 281 275 271 268 267 271 272 273 269 265 260 254 251 250 251 251 251 250 251 254 254
306 223 268 238 320 259 331 288 251 94 126 94 33 0 349 351 358 360 355 355 351 344 334 322 315 310 310 306 295 290 280 269 265 265 270 272 273 272 267 257 254 252 248 250 252 251 250 249 251
301 321 339 340 36 275 26 281 285 211 201 59 352 343 341 345 355 349 347 348 345 345 341 328 315 306 302 305 306 295 284 278 275 272 275 275 273 271 269 265 256 251 248 248 250 251 251 251 249
235 306 325 192 312 359 294 67 271 210 236 257 297 324 326 335 340 344 348 350 356 351 348 348 339 325 304 301 306 298 291 283 287 284 281 277 275 272 271 268 257 253 250 248 247 250 246 247 244
41 43 27 23 52 355 262 137 275 198 203 241 281 297 314 324 332 338 343 342 343 346 349 351 350 344 337 306 293 298 289 288 286 289 289 286 283 279 274 270 266 256 250 249 248 246 246 244 246
67 51 339 350 343 231 303 57 248 237 210 203 243 283 302 315 323 334 337 337 339 340 339 343 346 349 340 332 303 293 290 285 284 284 282 283 280 277 278 275 270 263 254 252 249 250 249 245 244
127 143 155 235 264 274 351 238 249 230 208 227 251 287 297 305 306 320 332 335 335 336 336 336 333 333 337 341 330 304 291 285 282 285 283 284 281 277 277 279 275 266 259 254 254 252 251 250 247
269 312 175 109 238 275 252 283 297 186 239 243 255 282 317 311 318 322 330 331 334 334 333 333 330 327 326 326 323 320 307 294 283 279 278 282 285 280 280 278 277 270 260 255 258 255 253 251 248
152 154 147 130 308 293 285 273 241 242 238 243 253 272 321 331 323 327 327 330 331 329 330 334 334 329 332 331 328 324 310 295 288 270 272 279 294 291 285 277 275 271 259 258 258 257 254 252 248
165 237 204 248 182 195 300 267 221 221 218 225 252 274 312 329 324 325 324 326 329 331 332 336 338 336 335 335 334 331 325 320 286 269 264 270 286 294 291 290 285 273 261 257 260 256 254 254 251
175 191 166 133 258 201 245 274 280 246 223 224 263 294 312 323 315 316 319 326 331 331 334 339 341 343 338 335 338 338 337 332 302 270 276 277 279 283 285 291 288 277 267 258 258 252 253 252 251
Height
1524 1525 1528 1530 1541 1547 1552 1541 1536 1535 1535 1535 1534 1533 1539 1541 1543 1551 1545 1546 1546 1547 1549 1549 1549 1549 1550 1551 1551 1552 1553 1553 1553 1553 1553 1553 1553 1553 1552 1552 1553 1553 1554 1554 1554 1555 1555 1555 1554
1526 1527 1530 1530 1548 1558 1555 1544 1540 1539 1537 1536 1536 1537 1538 1545 1545 1545 1546 1546 1546 1547 1549 1549 1549 1550 1550 1551 1552 1553 1553 1553 1554 1553 1553 1554 1554 1554 1553 1553 1553 1553 1554 1555 1556 1556 1556 1555 1555
1527 1528 1531 1538 1553 1556 1554 1542 1541 1539 1537 1536 1538 1539 1543 1546 1547 1546 1546 1546 1547 1548 1548 1548 1548 1549 1550 1551 1551 1553 1553 1553 1554 1554 1553 1553 1554 1554 1554 1554 1554 1554 1554 1555 1556 1556 1557 1556 1556
1528 1531 1534 1545 1547 1545 1544 1543 1541 1539 1538 1538 1540 1544 1547 1547 1547 1547 1546 1547 1547 1548 1548 1548 1549 1549 1549 1549 1550 1552 1553 1553 1554 1554 1554 1554 1554 1554 1554 1553 1553 1554 1554 1555 1555 1556 1557 1557 1557
1529 1532 1544 1549 1544 1544 1543 1543 1542 1540 1540 1540 1540 1546 1547 1548 1548 1547 1546 1546 1547 1548 1548 1548 1548 1548 1549 1550 1550 1551 1552 1552 1553 1553 1554 1554 1554 1554 1554 1553 1553 1553 1553 1554 1555 1556 1556 1556 1557
1530 1534 1551 1554 1546 1544 1544 1543 1542 1542 1542 1542 1543 1546 1548 1548 1548 1548 1547 1546 1546 1547 1548 1548 1548 1548 1548 1549 1549 1549 1551 1551 1551 1552 1552 1553 1553 1554 1553 1553 1553 1553 1553 1554 1554 1555 1555 1556 1556
1532 1540 1548 1547 1548 1547 1545 1544 1544 1545 1544 1545 1546 1548 1548 1548 1548 1548 1547 1546 1546 1547 1546 1547 1548 1548 1548 1548 1548 1549 1549 1550 1551 1551 1551 1551 1552 1552 1552 1552 1552 1552 1552 1553 1554 1554 1555 1555 1554
1534 1538 1543 1551 1550 1549 1546 1545 1545 1545 1545 1546 1546 1547 1548 1548 1548 1548 1547 1547 1546 1546 1546 1546 1546 1546 1546 1546 1547 1548 1548 1549 1549 1549 1549 1550 1550 1550 1551 1551 1551 1551 1551 1552 1552 1553 1554 1554 1554
1536 1546 1552 1549 1547 1547 1546 1546 1547 1546 1545 1545 1546 1547 1548 1548 1548 1548 1548 1547 1546 1546 1545 1545 1545 1545 1545 1544 1544 1545 1545 1546 1546 1547 1548 1548 1548 1548 1548 1548 1549 1549 1550 1550 1551 1552 1552 1553 1554
1538 1550 1548 1547 1547 1547 1547 1547 1547 1546 1545 1544 1545 1545 1546 1546 1546 1546 1546 1545 1545 1545 1545 1544 1543 1543 1543 1543 1543 1543 1542 1542 1543 1543 1544 1544 1545 1545 1545 1545 1546 1547 1547 1548 1548 1549 1550 1551 1552
1542 1549 1546 1548 1547 1548 1548 1548 1547 1546 1545 1543 1544 1544 1544 1545 1544 1544 1544 1543 1542 1542 1542 1542 1541 1541 1541 1541 1541 1540 1540 1539 1539 1539 1539 1540 1541 1541 1541 1541 1542 1543 1544 1545 1546 1546 1546 1548 1549
1544 1545 1546 1547 1548 1548 1549 1548 1547 1545 1542 1542 1542 1542 1542 1541 1541 1541 1540 1540 1539 1538 1538 1539 1538 1537 1537 1537 1537 1537 1536 1536 1536 1536 1535 1535 1535 1536 1537 1537 1538 1538 1539 1540 1542 1543 1544 1545 1546
1545 1547 1547 1547 1548 1548 1548 1547 1548 1540 1541 1541 1540 1540 1539 1539 1538 1537 1536 1535 1534 1533 1533 1533 1533 1532 1532 1531 1531 1531 1531 1531 1532 1531 1531 1531 1531 1531 1531 1532 1533 1534 1535 1536 1537 1538 1540 1541 1543
1547 1547 1547 1547 1547 1548 1547 1547 1547 1539 1539 1539 1539 1538 1537 1536 1535 1534 1533 1532 1531 1530 1529 1528 1527 1527 1526 1525 1524 1524 1524 1525 1525 1526 1526 1527 1527 1527 1526 1527 1527 1528 1529 1531 1532 1533 1535 1536 1538
1547 1548 1546 1546 1546 1547 1547 1545 1545 1539 1538 1538 1539 1537 1535 1533 1533 1532 1529 1527 1524 1523 1521 1521 1521 1521 1520 1519 1518 1517 1517 1517 1517 1519 1520 1521 1521 1522 1522 1522 1521 1522 1524 1525 1527 1528 1530 1531 1533
1549 1550 1552 1547 1546 1547 1548 1548 1540 1539 1538 1536 1536 1534 1531 1529 1528 1527 1525 1523 1521 1519 1518 1516 1515 1514 1513 1513 1512 1510 1509 1509 1508 1509 1511 1512 1514 1515 1516 1516 1516 1517 1517 1519 1520 1522 1523 1524 1526
1558 1564 1553 1549 1549 1548 1549 1547 1538 1537 1537 1534 1533 1532 1530 1527 1526 1524 1522 1520 1518 1516 1513 1512 1510 1509 1507 1505 1503 1501 1501 1500 1500 1500 1500 1502 1504 1506 1507 1508 1509 1512 1512 1512 1512 1514 1516 1517 1519
1564 1559 1557 1555 1552 1550 1549 1545 1538 1531 1531 1529 1530 1530 1527 1525 1523 1521 1519 1516 1512 1509 1506 1503 1501 1500 1498 1496 1494 1493 1491 1489 1490 1490 1491 1492 1493 1495 1497 1498 1500 1503 1505 1505 1507 1508 1508 1510 1513
1559 1561 1562 1557 1553 1551 1546 1546 1533 1526 1524 1527 1528 1526 1524 1522 1521 1518 1513 1508 1505 1502 1499 1495 1492 1491 1488 1486 1484 1483 1480 1481 1481 1481 1482 1483 1484 1485 1486 1487 1490 1492 1494 1497 1500 1502 1503 1504 1506
1560 1562 1564 1556 1552 1553 1548 1539 1528 1522 1523 1524 1524 1523 1521 1519 1516 1513 1508 1503 1499 1496 1492 1489 1486 1483 1480 1476 1473 1471 1469 1468 1469 1471 1472 1473 1473 1474 1475 1476 1477 1481 1484 1487 1489 1493 1496 1497 1500
1562 1563 1563 1565 1557 1551 1551 1538 1524 1523 1522 1523 1522 1521 1520 1517 1513 1509 1505 1501 1496 1492 1488 1484 1480 1476 1473 1470 1465 1463 1460 1458 1458 1461 1461 1463 1464 1464 1464 1466 1467 1469 1473 1475 1479 1483 1486 1489 1491
1571 1561 1560 1560 1568 1572 1556 1558 1531 1523 1521 1520 1519 1518 1517 1514 1511 1507 1503 1499 1494 1490 1485 1479 1474 1470 1467 1464 1460 1457 1454 1452 1452 1452 1453 1453 1454 1454 1454 1455 1458 1460 1461 1464 1468 1472 1475 1481 1481
1565 1560 1561 1565 1559 1576 1560 1577 1531 1523 1520 1518 1517 1515 1514 1511 1508 1504 1501 1497 1493 1488 1482 1476 1470 1464 1460 1457 1455 1452 1449 1448 1446 1445 1444 1444 1445 1445 1445 1446 1448 1449 1452 1454 1458 1462 1466 1468 1472
1561 1564 1564 1562 1564 1595 1557 1565 1541 1525 1516 1515 1514 1512 1510 1507 1505 1502 1499 1494 1489 1485 1481 1473 1466 1461 1455 1452 1450 1447 1445 1444 1440 1437 1437 1436 1436 1436 1437 1438 1438 1441 1441 1444 1447 1452 1457 1460 1462
1565 1578 1596 1584 1573 1569 1569 1570 1529 1514 1512 1511 1510 1509 1507 1505 1502 1498 1495 1490 1485 1481 1476 1469 1464 1458 1453 1448 1444 1442 1439 1437 1435 1431 1428 1427 1427 1429 1429 1429 1429 1431 1432 1434 1438 1441 1445 1450 1453
1569 1576 1588 1588 1572 1572 1565 1560 1523 1508 1507 1506 1508 1507 1503 1501 1499 1494 1490 1486 1483 1478 1471 1466 1461 1456 1451 1445 1440 1436 1432 1429 1426 1423 1421 1420 1419 1419 1420 1421 1422 1422 1424 1425 1429 1431 1434 1440 1443
1570 1577 1570 1585 1576 1566 1567 1536 1511 1507 1507 1506 1504 1503 1499 1495 1492 1489 1486 1483 1479 1474 1468 1463 1458 1452 1447 1442 1436 1430 1425 1420 1416 1415 1415 1413 1413 1412 1412 1414 1414 1414 1416 1416 1421 1421 1424 1430 1434
1564 1565 1571 1571 1564 1583 1555 1540 1523 1513 1505 1501 1500 1497 1494 1491 1489 1486 1484 1480 1477 1472 1465 1460 1455 1448 1441 1435 1430 1424 1417 1411 1407 1406 1407 1408 1407 1407 1407 1408 1408 1407 1407 1409 1413 1414 1416 1421 1424
1561 1567 1564 1568 1566 1584 1562 1533 1505 1501 1496 1497 1495 1494 1491 1487 1484 1482 1480 1477 1473 1467 1462 1458 1451 1444 1437 1431 1424 1416 1408 1401 1399 1400 1402 1403 1403 1403 1402 1401 1400 1400 1400 1402 1404 1408 1410 1413 1416
1554 1557 1556 1578 1574 1563 1554 1533 1497 1494 1493 1493 1491 1489 1486 1484 1481 1479 1476 1473 1469 1465 1459 1453 1447 1441 1435 1429 1420 1412 1404 1398 1395 1397 1399 1399 1399 1399 1398 1396 1395 1395 1394 1396 1397 1401 1403 1406 1409